Voltar ao catálogo

COSMOS 2251 DEB

AtivoLEO
NORAD 34389·DEBRIS·🇷🇺 Russia

Lançado Jun 16, 1993 de Plesetsk Cosmodrome

Loading…

Próximas Passagens (próximas 24 horas)

TLE

AtualizadoSource: Space-Track

Época: Sep 14, 2026, 12:14 UTC

1 34389U 93036QE  26257.50974410  .00000661  00000-0  20801-3 0  9997
2 34389  74.0165  98.1728 0029061 147.4473 229.8389 14.42107678919870

Acompanhe COSMOS 2251 DEB em tempo real com AllMySat

Download on the App Store